Temp
30 27 21 20 21 23 23 22 22 25 26 22 24 27 27 27 27 27 27 26 25 25 23 23 23 22 21 21 21 21 20 20 21 20 21 21 22 21 21 21 21 21 21 20
28 27 29 24 24 25 23 23 23 21 25 22 22 22 22 24 28 27 27 27 25 25 24 24 23 22 22 21 22 21 20 21 20 21 20 20 21 21 21 21 21 20 21 21
28 31 29 28 27 23 24 23 23 23 20 19 20 19 21 24 25 28 28 27 26 25 25 24 23 22 22 22 21 21 20 20 20 21 20 20 20 21 20 20 20 21 21 21
29 32 34 32 31 30 28 29 29 24 23 19 21 20 19 21 22 22 28 27 26 25 25 24 23 23 22 22 21 21 21 20 20 20 20 20 20 20 20 19 20 20 21 20
29 30 31 32 32 32 31 32 29 28 26 21 20 19 19 19 23 22 27 28 27 26 25 24 24 23 23 22 22 21 21 21 21 20 20 20 20 20 20 20 20 20 19 20
29 32 32 32 32 31 32 32 30 30 25 24 21 21 21 19 22 22 25 27 27 25 25 25 24 24 23 23 23 21 20 20 20 21 20 20 20 19 19 19 20 20 20 20
28 29 31 33 31 30 30 28 23 25 24 25 22 21 21 24 24 25 25 27 27 26 26 25 25 24 23 22 21 21 20 20 21 20 19 19 20 20 20 20 20 19 18 17
25 26 30 31 29 28 28 27 23 25 24 27 24 25 25 26 26 25 26 28 29 25 26 26 25 24 23 22 22 21 20 20 20 18 19 19 19 19 19 19 18 18 18 17
26 26 31 32 31 29 28 26 27 26 27 26 26 25 23 23 23 21 24 25 22 19 23 22 22 22 22 22 21 19 18 19 19 18 17 18 18 18 18 18 18 17 18 18
27 25 28 31 31 31 28 29 26 23 25 26 26 25 23 24 22 22 20 19 18 17 17 17 18 17 18 19 17 16 16 16 16 16 17 17 16 17 18 19 19 19 19 19
28 25 27 29 29 28 27 26 27 26 24 24 24 24 26 21 20 18 17 17 16 16 15 15 15 15 15 16 16 16 15 16 15 15 15 16 16 16 17 17 17 18 19 19
28 26 25 28 28 30 28 27 27 22 23 24 23 21 20 18 17 16 14 14 14 14 14 14 14 14 14 15 16 15 15 15 15 15 15 16 17 17 17 17 17 17 18 17
29 25 23 24 25 29 29 28 27 26 24 23 24 20 18 17 15 14 14 13 14 15 15 15 15 15 14 14 14 15 15 15 16 16 17 16 17 17 18 18 19 17 17 17
29 26 23 21 25 28 28 29 29 27 23 24 21 19 18 18 16 14 13 12 13 13 13 13 14 14 14 14 14 15 15 15 16 15 16 16 17 17 17 17 17 18 17 15
26 25 27 25 27 27 28 29 28 25 26 25 22 21 19 18 16 15 13 12 12 12 13 13 14 14 14 14 14 14 15 15 15 15 16 17 17 17 16 15 15 15 14 13
26 22 27 24 25 27 26 25 27 26 27 23 20 18 18 17 16 14 14 14 13 14 14 14 14 14 14 14 13 14 14 15 15 15 16 15 15 15 14 13 13 12 12 12
21 22 22 22 24 24 20 21 25 26 25 24 21 19 18 17 16 15 15 15 15 15 15 14 14 14 14 13 13 13 13 13 12 12 12 12 12 12 12 12 13 12 11 11
20 19 20 18 22 21 19 22 24 24 24 23 22 20 18 17 17 16 16 17 17 16 15 15 15 14 13 13 13 13 12 13 12 11 11 11 11 11 11 11 10 10 11 10
20 20 21 18 16 18 21 20 21 21 20 22 20 19 17 17 17 17 18 18 17 17 16 15 15 14 13 13 13 13 12 11 11 11 11 11 11 10 10 11 11 11 11 11
21 20 19 18 19 15 15 20 23 22 18 23 22 21 19 18 15 16 19 18 17 17 16 16 14 14 13 13 12 11 11 11 11 11 11 11 11 10 11 11 11 11 11 10
20 19 21 20 19 18 20 20 23 19 18 22 21 20 20 15 17 17 18 17 17 16 15 14 14 13 13 12 12 12 11 11 11 11 11 11 11 11 11 11 11 11 11 10
19 18 15 17 19 18 20 21 20 19 22 22 22 20 19 18 17 17 17 16 16 15 15 14 14 14 13 13 12 12 12 11 11 11 11 11 11 11 11 12 12 12 11 11
17 17 13 15 17 19 20 21 22 22 22 22 21 20 20 18 18 17 16 16 15 15 14 14 14 13 13 13 12 12 12 12 11 11 11 11 11 12 12 12 12 12 12 12
18 17 17 17 18 19 20 21 22 21 21 21 21 20 19 19 18 17 16 15 15 14 14 14 13 13 13 13 12 12 12 11 11 11 11 11 11 12 12 13 13 13 13 12
18 19 20 19 20 20 21 21 21 21 20 20 20 20 20 19 18 17 16 15 15 14 14 14 13 13 13 12 12 12 11 11 11 11 11 11 12 11 12 12 13 13 13 13
22 20 18 18 21 21 21 21 20 20 20 20 20 19 19 19 18 17 16 15 14 14 14 13 13 12 12 12 12 11 11 11 11 11 11 12 12 12 12 13 13 13 13 13
Height
1499 1509 1523 1523 1520 1517 1523 1531 1528 1518 1520 1537 1532 1530 1532 1532 1533 1535 1537 1540 1544 1549 1552 1554 1559 1563 1567 1570 1572 1576 1579 1582 1584 1587 1590 1591 1593 1594 1595 1596 1596 1597 1599 1600
1499 1505 1491 1501 1507 1507 1521 1527 1525 1535 1529 1543 1539 1542 1538 1532 1529 1531 1534 1538 1542 1548 1552 1555 1558 1562 1565 1568 1572 1575 1577 1580 1584 1587 1591 1594 1594 1594 1595 1595 1595 1596 1596 1596
1494 1487 1488 1493 1501 1510 1513 1518 1518 1523 1535 1546 1542 1552 1536 1525 1529 1530 1531 1535 1540 1544 1549 1553 1556 1559 1563 1565 1569 1573 1576 1579 1582 1586 1587 1590 1591 1594 1594 1593 1594 1595 1593 1593
1486 1476 1478 1482 1488 1488 1505 1488 1500 1525 1529 1561 1540 1569 1548 1528 1525 1532 1525 1530 1536 1539 1545 1550 1553 1556 1558 1561 1566 1569 1572 1575 1578 1582 1585 1587 1590 1590 1593 1591 1591 1589 1589 1589
1492 1482 1483 1484 1485 1479 1487 1476 1492 1499 1509 1530 1544 1553 1538 1530 1521 1522 1522 1522 1524 1528 1534 1542 1549 1553 1556 1560 1562 1565 1567 1570 1572 1577 1581 1583 1585 1585 1588 1590 1590 1587 1588 1588
1482 1475 1476 1479 1478 1479 1478 1480 1484 1484 1505 1534 1526 1530 1535 1526 1516 1517 1513 1517 1520 1526 1533 1540 1544 1549 1553 1559 1560 1565 1572 1574 1576 1570 1575 1579 1582 1582 1584 1587 1588 1587 1588 1589
1488 1482 1473 1473 1483 1480 1485 1497 1536 1535 1532 1525 1507 1532 1526 1501 1508 1510 1510 1515 1521 1528 1528 1535 1540 1544 1550 1554 1558 1564 1566 1575 1577 1569 1572 1578 1580 1581 1584 1584 1585 1583 1583 1585
1510 1512 1477 1468 1475 1487 1488 1496 1533 1541 1543 1520 1508 1517 1504 1489 1504 1509 1512 1514 1519 1530 1528 1534 1537 1542 1546 1551 1553 1559 1565 1569 1568 1569 1573 1576 1579 1580 1582 1583 1582 1582 1584 1584
1502 1497 1466 1464 1461 1472 1486 1501 1484 1506 1498 1516 1505 1505 1500 1503 1505 1510 1512 1520 1528 1536 1524 1528 1535 1538 1544 1550 1554 1561 1562 1564 1566 1569 1572 1573 1575 1577 1579 1579 1579 1580 1581 1583
1480 1502 1471 1463 1456 1465 1476 1474 1506 1509 1528 1529 1512 1508 1515 1508 1511 1516 1523 1530 1537 1537 1529 1534 1536 1541 1545 1550 1555 1559 1561 1562 1566 1568 1568 1571 1574 1575 1576 1577 1579 1580 1579 1580
1468 1484 1483 1470 1476 1480 1482 1488 1485 1492 1506 1529 1533 1522 1490 1505 1511 1522 1534 1541 1538 1533 1534 1538 1541 1541 1545 1549 1555 1559 1563 1562 1565 1568 1568 1571 1572 1574 1576 1577 1575 1575 1575 1575
1460 1475 1494 1481 1467 1463 1465 1477 1482 1516 1516 1503 1511 1529 1510 1515 1517 1513 1526 1532 1538 1539 1541 1545 1548 1549 1552 1554 1557 1560 1563 1564 1566 1568 1569 1570 1572 1571 1572 1574 1571 1572 1573 1570
1460 1479 1506 1502 1483 1465 1470 1471 1472 1476 1488 1506 1517 1531 1516 1528 1538 1531 1531 1537 1543 1546 1549 1552 1554 1556 1557 1557 1558 1560 1562 1564 1565 1567 1568 1569 1568 1567 1564 1569 1565 1566 1568 1566
1462 1473 1491 1518 1497 1477 1480 1471 1468 1478 1504 1501 1507 1520 1524 1527 1535 1536 1541 1542 1545 1549 1552 1555 1556 1556 1557 1559 1559 1559 1561 1562 1563 1563 1565 1566 1566 1565 1564 1567 1566 1563 1562 1561
1469 1486 1476 1481 1478 1476 1475 1474 1477 1486 1481 1496 1503 1506 1509 1514 1524 1531 1536 1543 1548 1552 1555 1556 1556 1557 1557 1559 1560 1560 1559 1560 1560 1561 1562 1561 1562 1562 1562 1564 1562 1560 1560 1558
1469 1490 1477 1489 1483 1481 1488 1487 1476 1480 1478 1492 1502 1520 1510 1521 1525 1533 1538 1542 1543 1548 1553 1555 1557 1559 1559 1558 1558 1558 1559 1559 1559 1560 1560 1560 1561 1561 1561 1560 1559 1558 1556 1555
1485 1489 1494 1505 1492 1490 1514 1509 1494 1486 1486 1491 1506 1516 1519 1524 1527 1530 1536 1540 1541 1545 1550 1556 1556 1556 1558 1559 1559 1558 1559 1559 1559 1559 1560 1560 1559 1559 1558 1557 1556 1556 1555 1552
1488 1495 1497 1518 1498 1525 1516 1500 1498 1498 1496 1497 1505 1513 1517 1521 1525 1529 1533 1535 1540 1545 1547 1553 1556 1557 1557 1557 1559 1559 1559 1559 1559 1560 1559 1559 1558 1558 1557 1555 1554 1553 1551 1549
1481 1492 1497 1521 1530 1526 1513 1511 1511 1514 1519 1510 1514 1517 1520 1523 1527 1532 1534 1536 1540 1543 1547 1551 1555 1556 1556 1558 1558 1559 1559 1559 1559 1559 1559 1558 1557 1556 1555 1553 1552 1550 1547 1544
1483 1485 1497 1510 1524 1554 1535 1514 1509 1519 1535 1518 1515 1516 1520 1524 1534 1536 1535 1538 1542 1545 1548 1550 1553 1556 1557 1556 1557 1558 1558 1558 1558 1557 1557 1556 1554 1553 1551 1549 1547 1545 1543 1540
1498 1495 1503 1507 1519 1524 1511 1509 1508 1527 1534 1517 1520 1518 1521 1526 1529 1535 1536 1540 1544 1547 1550 1551 1553 1554 1555 1555 1556 1556 1556 1556 1555 1555 1554 1552 1551 1549 1547 1545 1543 1540 1538 1536
1506 1513 1527 1516 1515 1530 1509 1508 1518 1515 1515 1518 1519 1520 1522 1525 1531 1535 1536 1538 1541 1545 1548 1550 1552 1553 1554 1554 1553 1553 1553 1553 1552 1552 1550 1548 1546 1544 1542 1540 1537 1536 1533 1529
1516 1513 1525 1520 1518 1507 1509 1511 1511 1513 1512 1517 1519 1520 1522 1525 1528 1531 1534 1537 1540 1543 1546 1548 1549 1551 1551 1552 1552 1551 1551 1550 1549 1548 1546 1544 1542 1539 1537 1535 1532 1529 1526 1522
1501 1503 1509 1511 1506 1506 1508 1511 1512 1513 1515 1517 1520 1524 1526 1525 1528 1531 1533 1536 1539 1542 1544 1546 1547 1549 1549 1549 1549 1548 1548 1547 1546 1543 1541 1539 1536 1534 1532 1529 1527 1523 1521 1517
1499 1501 1499 1501 1500 1505 1509 1510 1512 1515 1518 1521 1522 1523 1524 1525 1528 1529 1532 1535 1538 1540 1542 1544 1545 1545 1545 1544 1545 1545 1545 1543 1541 1539 1536 1534 1531 1529 1527 1525 1522 1519 1517 1514
1497 1495 1502 1506 1500 1502 1507 1511 1513 1516 1519 1520 1522 1523 1525 1525 1526 1529 1531 1534 1537 1539 1540 1541 1541 1541 1541 1541 1541 1541 1540 1539 1537 1534 1531 1529 1527 1525 1522 1519 1516 1514 1510 1506
Wind_Speed
15 7 10 17 22 20 18 11 7 2 6 6 10 9 13 22 23 24 28 25 29 26 25 20 17 20 20 24 22 21 19 18 13 14 14 14 10 7 6 7 4 9 4 2
4 11 12 23 23 19 19 10 4 12 7 6 12 3 10 12 22 27 27 28 31 27 24 23 21 22 19 24 22 24 18 22 17 13 13 7 5 12 12 8 13 12 12 7
8 9 26 21 22 22 19 23 12 14 16 5 11 3 10 5 1 23 28 31 32 32 29 26 26 25 21 21 23 31 22 21 19 15 11 9 10 7 5 7 6 12 15 14
9 10 0 6 5 14 9 26 19 23 12 7 4 4 5 8 6 9 27 29 32 34 32 30 30 27 27 24 27 29 29 26 20 18 14 11 6 8 8 6 7 6 10 14
10 11 9 8 8 5 6 9 22 26 12 8 4 5 7 6 10 7 19 31 36 42 38 37 33 30 30 25 24 28 30 27 21 19 16 13 12 10 11 10 7 7 9 12
11 22 4 3 9 7 10 4 9 8 6 3 13 6 5 7 13 8 8 22 32 40 37 37 33 31 33 27 22 25 24 23 19 19 17 16 14 12 16 11 13 8 7 9
9 13 13 5 2 8 9 4 4 4 2 8 14 3 7 16 11 16 9 9 10 28 40 37 37 35 35 32 32 31 28 27 21 17 16 13 15 16 16 12 8 8 2 6
5 8 14 10 9 8 7 6 5 4 3 7 19 8 5 16 18 8 12 19 17 13 28 37 29 30 32 32 33 29 26 26 17 20 13 11 12 12 6 4 2 2 5 2
5 11 15 14 7 10 7 6 10 6 5 3 3 6 8 5 11 14 13 17 13 10 28 36 34 35 31 26 20 23 25 24 17 15 14 16 14 11 10 8 6 5 5 7
8 6 10 10 8 7 8 6 4 4 3 4 4 6 9 14 11 11 11 16 20 26 39 33 31 27 26 25 29 28 26 24 22 20 18 16 12 7 6 5 3 6 6 10
7 5 12 5 4 6 3 4 4 1 3 1 2 3 14 19 20 20 22 21 23 29 31 36 35 34 28 26 24 21 17 19 19 15 12 9 6 4 4 5 6 8 12 15
9 5 3 5 8 5 8 7 4 5 9 4 5 2 16 17 21 27 23 23 23 26 27 29 30 29 25 20 17 15 14 13 11 8 8 6 3 1 7 11 12 16 16 16
1 1 3 10 10 6 5 9 8 3 1 5 3 5 12 25 12 19 23 21 21 19 20 19 18 17 16 15 15 15 16 15 14 11 8 3 4 6 10 19 20 19 17 17
9 1 6 6 4 5 4 5 6 2 1 3 2 9 13 18 16 20 18 19 20 18 17 15 12 11 12 12 12 12 10 8 8 7 9 11 10 12 13 13 13 14 16 19
3 1 4 7 9 8 7 7 5 9 6 4 10 9 13 14 16 22 20 17 15 13 11 11 12 11 10 9 8 7 6 5 4 6 6 7 8 7 6 7 9 11 15 18
4 5 3 9 10 10 11 24 6 6 6 14 21 15 19 26 29 23 20 20 21 19 17 15 12 11 9 8 5 3 1 1 2 3 4 3 3 6 7 9 10 12 16 20
7 3 1 3 3 7 9 12 14 6 13 12 8 10 21 15 21 24 24 22 23 22 19 16 13 12 11 10 5 3 1 1 1 2 5 7 8 10 11 12 13 13 18 21
4 4 4 2 3 4 6 9 12 18 19 15 18 14 18 22 23 25 24 25 23 22 20 18 14 9 6 5 7 5 3 3 3 3 7 11 13 13 14 15 16 19 19 22
4 1 3 3 4 3 2 6 5 8 10 12 11 16 19 21 19 15 20 26 27 22 20 17 13 9 10 10 8 8 8 7 7 7 9 12 15 16 17 18 18 18 20 23
6 4 5 2 5 2 9 13 3 7 4 10 12 14 26 24 5 1 26 26 22 19 16 13 10 11 11 9 7 7 8 8 10 8 11 15 15 17 18 19 20 19 20 25
3 3 2 2 4 2 4 8 11 4 6 12 16 18 18 6 17 23 24 18 15 14 9 6 6 7 8 11 12 10 10 11 9 11 15 17 16 18 19 19 18 20 23 26
4 3 3 4 5 3 5 4 4 7 11 10 11 14 22 25 27 24 20 22 22 18 13 13 12 11 11 13 12 12 12 10 12 15 18 19 20 20 19 19 21 23 24 26
4 4 5 6 3 4 2 9 13 10 13 11 13 13 18 22 22 22 24 22 18 12 11 10 10 11 12 14 14 15 12 12 15 19 20 21 21 18 17 23 22 22 21 23
2 8 2 4 3 8 6 13 11 12 15 12 9 12 10 17 22 24 23 19 14 12 11 9 9 12 14 13 12 12 13 15 17 20 22 22 18 18 21 19 24 14 19 26
5 10 4 0 4 12 13 15 12 7 4 5 5 3 3 5 16 24 21 18 15 13 11 10 12 13 14 15 13 13 13 15 20 20 18 18 17 21 19 18 19 24 28 28
6 5 4 4 12 12 16 16 14 11 8 6 6 6 2 5 10 17 18 16 14 11 9 11 13 12 11 11 13 14 17 17 18 19 18 17 17 18 19 22 24 24 31 30
Wind_Direction
212 174 167 181 172 189 197 214 203 150 268 62 26 118 162 185 181 172 170 178 162 167 168 172 175 183 194 187 199 178 183 195 203 180 169 152 155 197 238 238 202 203 200 297
215 232 205 175 187 169 184 183 167 47 350 87 108 323 300 281 193 177 173 177 165 166 174 175 174 178 181 188 193 182 188 196 206 198 167 178 224 226 240 245 234 250 252 244
253 228 158 166 190 170 194 194 188 147 96 72 98 325 280 269 321 194 177 180 166 169 170 174 174 177 177 180 186 177 191 192 205 201 175 220 230 251 234 228 250 277 257 238
290 301 313 319 247 201 235 204 174 150 137 164 222 213 289 277 289 328 174 173 170 171 176 176 177 181 188 194 192 195 199 209 210 187 189 215 234 237 249 268 271 281 242 260
264 292 328 178 245 351 273 9 158 191 158 130 224 94 246 282 246 270 199 180 176 178 179 183 186 190 196 196 195 202 203 203 189 194 193 207 217 236 247 279 309 313 277 274
281 294 264 14 335 334 322 17 324 308 134 201 194 147 257 204 211 231 171 177 180 178 179 185 188 190 198 199 197 190 196 199 195 185 207 225 228 232 255 268 269 284 282 267
291 283 287 151 249 305 299 350 314 321 281 240 155 213 231 217 204 216 171 190 158 182 183 185 187 189 193 192 191 191 184 199 201 208 205 221 239 248 262 273 270 255 233 48
260 283 243 231 174 197 231 193 171 263 310 314 150 152 226 199 189 165 194 180 210 321 187 188 175 173 173 173 185 193 184 192 208 212 220 219 221 224 234 184 189 122 112 137
266 288 298 307 178 156 250 272 235 245 258 301 119 23 18 40 129 133 158 201 211 79 128 137 150 150 155 163 166 170 175 181 184 188 186 172 162 159 156 167 179 196 200 223
239 256 279 304 107 187 171 238 354 341 288 262 159 170 144 141 134 158 124 124 119 107 105 115 122 127 138 143 144 155 166 169 162 159 163 161 166 181 179 196 228 250 264 289
242 181 273 14 272 181 318 273 282 149 162 234 347 308 153 142 127 114 113 118 105 98 106 105 110 113 122 133 142 149 158 164 172 178 180 186 203 213 232 255 282 300 305 307
220 179 193 260 299 242 188 243 227 131 280 213 175 65 57 93 113 115 105 94 96 100 113 116 117 128 127 131 140 148 154 163 167 153 123 108 105 13 324 307 309 311 316 323
304 46 41 334 333 340 176 234 214 244 121 248 159 138 112 95 111 111 110 112 122 125 131 135 139 145 143 142 147 144 144 141 135 135 151 32 353 332 317 311 310 319 320 325
1 27 139 199 249 256 294 316 268 275 316 276 139 131 140 135 130 118 120 126 134 138 141 146 145 142 141 142 141 146 156 170 187 199 227 254 270 251 248 266 290 300 326 343
49 309 337 304 316 349 342 91 350 13 260 84 171 144 153 125 125 123 127 127 129 140 147 144 137 136 132 129 124 128 143 160 188 221 247 238 253 274 281 299 320 337 350 357
335 287 305 296 16 328 29 10 12 26 18 90 90 78 112 112 113 126 139 148 147 147 146 143 136 125 116 111 113 102 98 145 186 224 239 249 269 291 309 327 340 351 350 351
350 10 289 135 348 352 32 346 356 35 45 89 101 139 125 127 134 147 156 160 150 147 145 153 150 158 169 169 193 216 253 295 24 347 323 323 320 317 314 316 319 327 340 341
3 21 356 147 46 69 248 341 18 57 35 43 115 135 139 146 154 163 162 154 153 153 153 167 178 180 169 170 181 207 265 269 240 266 296 303 310 306 310 311 320 323 331 332
88 3 115 99 35 20 18 344 7 31 28 19 122 143 148 144 147 182 178 159 158 162 170 179 197 201 197 223 241 241 225 243 255 262 266 281 291 301 307 310 311 311 316 324
159 129 96 69 109 94 244 261 30 42 4 30 45 125 152 153 115 108 148 154 158 174 190 197 211 213 228 237 255 252 254 256 274 280 279 289 295 299 300 307 311 309 304 306
28 356 99 67 114 357 247 302 271 114 203 113 80 89 111 98 141 133 145 148 166 170 173 172 196 223 252 232 251 263 262 259 278 281 291 296 303 306 312 309 308 308 304 304
40 47 17 347 40 108 240 29 98 165 128 128 127 114 118 129 144 152 159 159 162 167 180 195 211 228 235 253 261 271 282 290 291 290 297 301 302 303 307 305 305 306 296 294
65 147 187 169 207 210 160 104 123 137 107 89 97 156 158 156 165 169 166 169 174 190 197 209 217 238 242 251 261 271 273 281 289 294 297 302 304 300 306 310 310 307 297 292
76 172 162 140 193 202 185 117 98 87 84 91 99 100 152 198 171 171 169 167 175 185 207 222 237 255 260 257 253 262 277 291 292 292 293 298 298 301 315 307 315 312 307 304
215 171 151 176 164 188 190 146 145 140 99 78 65 45 320 43 185 185 179 181 187 199 215 228 242 256 263 266 270 277 281 285 291 301 303 305 295 300 299 303 303 303 308 312
226 208 142 199 140 115 119 122 132 136 161 182 194 194 163 210 172 175 179 183 185 196 220 249 262 267 273 268 270 272 277 283 292 301 310 315 316 306 306 307 299 300 303 308